• en Belgique
  • Liste des pays
  • À 7 jours
  • Température de l'eau
  • Carte satellitaire
  • Carte météo
  • Widgets météo
  • user-avatar
    Se connecter

    Météo par heure à Gand

    Ce jour, 22 Juillet, Dimanche

    Heure Température Précipitation Vent Pression Humidité
    00:00 +16°C° 0 mm 2 m/s 760 mmHg 76%
    01:00 +15°C° 0 mm 1 m/s 760 mmHg 78%
    02:00 +15°C° 0 mm 1 m/s 760 mmHg 79%
    03:00 +15°C° 0 mm 1 m/s 760 mmHg 81%
    04:00 +16°C° 0 mm 1 m/s 760 mmHg 77%
    05:00 +17°C° 0 mm 2 m/s 760 mmHg 72%
    06:00 +19°C° 0 mm 2 m/s 760 mmHg 68%
    07:00 +21°C° 0 mm 2 m/s 761 mmHg 63%
    08:00 +24°C° 0 mm 2 m/s 761 mmHg 58%
    09:00 +26°C° 0 mm 3 m/s 761 mmHg 52%
    10:00 +26°C° 0,2 mm 3 m/s 761 mmHg 52%
    11:00 +27°C° 0,2 mm 3 m/s 761 mmHg 52%
    12:00 +28°C° 0,2 mm 4 m/s 760 mmHg 51%
    13:00 +27°C° 0,1 mm 4 m/s 760 mmHg 53%
    14:00 +27°C° 0,1 mm 4 m/s 760 mmHg 55%
    15:00 +27°C° 0,1 mm 4 m/s 761 mmHg 56%
    16:00 +26°C° 0 mm 4 m/s 761 mmHg 58%
    17:00 +25°C° 0 mm 3 m/s 760 mmHg 59%
    18:00 +24°C° 0 mm 3 m/s 760 mmHg 61%
    19:00 +21°C° 0 mm 2 m/s 761 mmHg 65%
    20:00 +20°C° 0 mm 2 m/s 761 mmHg 70%
    21:00 +19°C° 0 mm 1 m/s 762 mmHg 75%
    22:00 +19°C° 0 mm 1 m/s 762 mmHg 76%
    23:00 +18°C° 0 mm 1 m/s 762 mmHg 77%

    Demain, 23 Juillet, Lundi

    Heure Température Précipitation Vent Pression Humidité
    00:00 +18°C° 0 mm 1 m/s 762 mmHg 77%
    01:00 +18°C° 0 mm 1 m/s 762 mmHg 80%
    02:00 +18°C° 0 mm 1 m/s 762 mmHg 82%
    03:00 +18°C° 0 mm 1 m/s 762 mmHg 84%
    04:00 +19°C° 0 mm 1 m/s 762 mmHg 81%
    05:00 +20°C° 0 mm 1 m/s 762 mmHg 78%
    06:00 +21°C° 0 mm 1 m/s 762 mmHg 76%
    07:00 +23°C° 0 mm 1 m/s 762 mmHg 71%
    08:00 +24°C° 0 mm 1 m/s 762 mmHg 66%
    09:00 +26°C° 0 mm 1 m/s 762 mmHg 61%
    10:00 +27°C° 0 mm 1 m/s 762 mmHg 59%
    11:00 +28°C° 0 mm 1 m/s 762 mmHg 56%
    12:00 +29°C° 0 mm 2 m/s 762 mmHg 54%
    13:00 +29°C° 0 mm 2 m/s 762 mmHg 53%
    14:00 +29°C° 0 mm 2 m/s 762 mmHg 52%
    15:00 +30°C° 0 mm 2 m/s 761 mmHg 51%
    16:00 +29°C° 0 mm 2 m/s 761 mmHg 53%
    17:00 +29°C° 0 mm 1 m/s 761 mmHg 55%
    18:00 +29°C° 0 mm 1 m/s 761 mmHg 57%
    19:00 +27°C° 0 mm 1 m/s 761 mmHg 63%
    20:00 +25°C° 0 mm 1 m/s 762 mmHg 68%
    21:00 +23°C° 0 mm 1 m/s 762 mmHg 74%
    22:00 +22°C° 0 mm 1 m/s 762 mmHg 77%
    23:00 +22°C° 0 mm 1 m/s 761 mmHg 79%

    Après-demain, 24 Juillet, Mardi

    Heure Température Précipitation Vent Pression Humidité
    00:00 +21°C° 0 mm 1 m/s 761 mmHg 82%
    01:00 +21°C° 0 mm 1 m/s 761 mmHg 83%
    02:00 +20°C° 0 mm 1 m/s 761 mmHg 84%
    03:00 +20°C° 0 mm 1 m/s 761 mmHg 86%
    04:00 +21°C° 0 mm 1 m/s 761 mmHg 82%
    05:00 +22°C° 0 mm 1 m/s 761 mmHg 77%
    06:00 +23°C° 0 mm 1 m/s 760 mmHg 73%
    07:00 +25°C° 0 mm 1 m/s 760 mmHg 68%
    08:00 +27°C° 0 mm 1 m/s 760 mmHg 62%
    09:00 +29°C° 0 mm 1 m/s 760 mmHg 56%
    10:00 +29°C° 0,1 mm 1 m/s 760 mmHg 53%
    11:00 +30°C° 0,1 mm 1 m/s 760 mmHg 51%
    12:00 +31°C° 0,1 mm 2 m/s 760 mmHg 49%
    13:00 +30°C° 0,3 mm 2 m/s 760 mmHg 51%
    14:00 +30°C° 0,3 mm 2 m/s 759 mmHg 53%
    15:00 +29°C° 0,3 mm 2 m/s 759 mmHg 56%
    16:00 +29°C° 0,2 mm 3 m/s 759 mmHg 58%
    17:00 +28°C° 0,2 mm 3 m/s 759 mmHg 60%
    18:00 +28°C° 0,2 mm 3 m/s 759 mmHg 62%
    19:00 +26°C° 0,2 mm 2 m/s 760 mmHg 68%
    20:00 +24°C° 0,2 mm 2 m/s 760 mmHg 74%
    21:00 +23°C° 0,2 mm 2 m/s 760 mmHg 79%
    22:00 +21°C° 0,3 mm 2 m/s 760 mmHg 81%
    23:00 +21°C° 0,3 mm 2 m/s 760 mmHg 83%

    25 Juillet, Mercredi

    Heure Température Précipitation Vent Pression Humidité
    00:00 +21°C° 0,3 mm 1 m/s 760 mmHg 86%
    01:00 +21°C° 0 mm 1 m/s 760 mmHg 86%
    02:00 +21°C° 0 mm 1 m/s 760 mmHg 87%
    03:00 +20°C° 0 mm 1 m/s 760 mmHg 87%
    04:00 +21°C° 0 mm 1 m/s 760 mmHg 85%
    05:00 +22°C° 0 mm 1 m/s 760 mmHg 82%
    06:00 +23°C° 0 mm 1 m/s 760 mmHg 80%
    07:00 +24°C° 0 mm 1 m/s 760 mmHg 73%
    08:00 +26°C° 0 mm 1 m/s 760 mmHg 66%
    09:00 +28°C° 0 mm 1 m/s 760 mmHg 59%
    10:00 +29°C° 0,1 mm 1 m/s 760 mmHg 56%
    11:00 +30°C° 0,1 mm 1 m/s 760 mmHg 52%
    12:00 +31°C° 0,1 mm 2 m/s 760 mmHg 49%
    13:00 +31°C° 0 mm 2 m/s 760 mmHg 49%
    14:00 +31°C° 0 mm 2 m/s 760 mmHg 49%
    15:00 +31°C° 0 mm 2 m/s 760 mmHg 49%
    16:00 +30°C° 0 mm 3 m/s 760 mmHg 52%
    17:00 +29°C° 0 mm 3 m/s 760 mmHg 56%
    18:00 +29°C° 0 mm 3 m/s 760 mmHg 59%
    19:00 +27°C° 0 mm 3 m/s 760 mmHg 65%
    20:00 +25°C° 0 mm 2 m/s 760 mmHg 70%
    21:00 +23°C° 0 mm 2 m/s 760 mmHg 75%
    22:00 +23°C° 0 mm 1 m/s 760 mmHg 76%
    23:00 +23°C° 0 mm 1 m/s 760 mmHg 78%

    26 Juillet, Jeudi

    Heure Température Précipitation Vent Pression Humidité
    00:00 +22°C° 0 mm 1 m/s 760 mmHg 79%
    01:00 +22°C° 0,1 mm 1 m/s 760 mmHg 80%
    02:00 +22°C° 0,1 mm 1 m/s 760 mmHg 80%
    03:00 +21°C° 0,1 mm 1 m/s 760 mmHg 81%
    04:00 +22°C° 0 mm 1 m/s 760 mmHg 78%
    05:00 +23°C° 0 mm 1 m/s 761 mmHg 75%
    06:00 +24°C° 0 mm 1 m/s 761 mmHg 72%
    07:00 +26°C° 0 mm 1 m/s 761 mmHg 66%
    08:00 +28°C° 0 mm 2 m/s 761 mmHg 60%
    09:00 +29°C° 0 mm 2 m/s 761 mmHg 54%
    10:00 +30°C° 0 mm 2 m/s 761 mmHg 51%
    11:00 +31°C° 0 mm 3 m/s 761 mmHg 48%
    12:00 +33°C° 0 mm 3 m/s 761 mmHg 45%
    13:00 +33°C° 0 mm 3 m/s 761 mmHg 45%
    14:00 +33°C° 0 mm 3 m/s 761 mmHg 46%
    15:00 +33°C° 0 mm 4 m/s 761 mmHg 47%
    16:00 +32°C° 0,1 mm 4 m/s 761 mmHg 50%
    17:00 +30°C° 0,1 mm 4 m/s 761 mmHg 53%
    18:00 +28°C° 0,1 mm 4 m/s 761 mmHg 57%
    19:00 +27°C° 0,2 mm 3 m/s 761 mmHg 62%
    20:00 +25°C° 0,2 mm 3 m/s 761 mmHg 67%
    21:00 +22°C° 0,2 mm 3 m/s 762 mmHg 72%
    22:00 +23°C° 0 mm 2 m/s 762 mmHg 74%
    23:00 +23°C° 0 mm 2 m/s 761 mmHg 76%

    27 Juillet, Vendredi

    Heure Température Précipitation Vent Pression Humidité
    00:00 +21°C° 0 mm 2 m/s 761 mmHg 78%
    01:00 +21°C° 0 mm 2 m/s 761 mmHg 80%
    02:00 +21°C° 0 mm 2 m/s 761 mmHg 82%
    03:00 +22°C° 0 mm 1 m/s 761 mmHg 83%
    04:00 +22°C° 0 mm 1 m/s 761 mmHg 80%
    05:00 +23°C° 0 mm 1 m/s 761 mmHg 77%
    06:00 +24°C° 0 mm 1 m/s 761 mmHg 74%
    07:00 +26°C° 0 mm 1 m/s 760 mmHg 67%
    08:00 +28°C° 0 mm 1 m/s 760 mmHg 60%
    09:00 +30°C° 0 mm 2 m/s 760 mmHg 52%
    10:00 +32°C° 0 mm 2 m/s 760 mmHg 48%
    11:00 +34°C° 0 mm 2 m/s 760 mmHg 43%
    12:00 +35°C° 0 mm 2 m/s 760 mmHg 38%
    13:00 +35°C° 0 mm 2 m/s 759 mmHg 39%
    14:00 +35°C° 0 mm 2 m/s 759 mmHg 40%
    15:00 +35°C° 0 mm 2 m/s 759 mmHg 40%
    16:00 +34°C° 0 mm 2 m/s 759 mmHg 43%
    17:00 +32°C° 0 mm 2 m/s 759 mmHg 46%
    18:00 +32°C° 0 mm 2 m/s 759 mmHg 49%
    19:00 +30°C° 0,1 mm 2 m/s 759 mmHg 54%
    20:00 +28°C° 0,1 mm 2 m/s 759 mmHg 59%
    21:00 +26°C° 0,1 mm 1 m/s 759 mmHg 64%
    22:00 +25°C° 0,2 mm 1 m/s 759 mmHg 66%
    23:00 +25°C° 0,2 mm 1 m/s 759 mmHg 67%
    Voir plus